StationID,Date,MaxTemp,MinTemp,Precipitation,Snowfall,SnowDepth
"CA002101095","1980-02-01",38.30,-12.10,0.00,0.00,
"CA002101095","1980-02-02",40.10,29.30,0.00,0.00,
"CA002101095","1980-02-03",33.80,26.60,0.00,0.00,
"CA002101095","1980-02-04",35.60,18.50,0.00,0.00,
"CA002101095","1980-02-05",39.20,27.50,0.00,0.00,
"CA002101095","1980-02-06",42.80,30.20,0.00,0.00,
"CA002101095","1980-02-07",40.10,30.20,0.00,0.00,
"CA002101095","1980-02-08",30.20,-13.00,0.00,0.00,
"CA002101095","1980-02-09",26.60,-10.30,0.00,0.00,
"CA002101095","1980-02-10",35.60,14.00,0.00,0.00,
"CA002101095","1980-02-11",28.40,-1.30,0.00,0.00,
"CA002101095","1980-02-12",19.40,-4.00,0.00,0.00,
"CA002101095","1980-02-13",18.50,-4.00,0.00,0.00,
"CA002101095","1980-02-14",19.40,-10.30,0.00,0.00,
"CA002101095","1980-02-15",8.60,-16.60,0.00,0.00,
"CA002101095","1980-02-16",5.00,-25.60,0.00,0.00,
"CA002101095","1980-02-17",4.10,-26.50,0.00,0.00,
"CA002101095","1980-02-18",9.50,-24.70,0.00,0.00,
"CA002101095","1980-02-19",6.80,1.40,10.00,10.00,
"CA002101095","1980-02-20",8.60,-14.80,0.00,0.00,
"CA002101095","1980-02-21",5.90,-16.60,0.00,0.00,
"CA002101095","1980-02-22",25.70,-22.90,0.00,0.00,
"CA002101095","1980-02-23",39.20,6.80,0.00,0.00,
"CA002101095","1980-02-24",37.40,24.80,0.00,0.00,
"CA002101095","1980-02-25",33.80,14.00,0.00,0.00,
"CA002101095","1980-02-26",35.60,24.80,0.00,0.00,
"CA002101095","1980-02-27",38.30,29.30,0.00,0.00,
"CA002101095","1980-02-28",39.20,31.10,0.00,0.00,
"CA002101095","1980-02-29",27.50,18.50,20.00,20.00,
"CA002101095","1980-03-01",17.60,10.40,0.00,0.00,
"CA002101095","1980-03-02",15.80,3.20,0.00,0.00,
"CA002101095","1980-03-03",10.40,0.50,0.00,0.00,
"CA002101095","1980-03-04",15.80,-7.60,0.00,0.00,
"CA002101095","1980-03-05",21.20,-13.00,0.00,0.00,
"CA002101095","1980-03-06",25.70,-14.80,0.00,0.00,
"CA002101095","1980-03-07",30.20,3.20,0.00,0.00,
"CA002101095","1980-03-08",35.60,19.40,0.00,0.00,
"CA002101095","1980-03-09",34.70,12.20,0.00,0.00,
"CA002101095","1980-03-10",23.00,23.00,0.00,0.00,
"CA002101095","1980-03-11",23.00,15.80,0.00,0.00,
"CA002101095","1980-03-12",24.80,12.20,10.00,10.00,
"CA002101095","1980-03-13",21.20,3.20,0.00,0.00,
"CA002101095","1980-03-14",18.50,5.90,0.00,0.00,
"CA002101095","1980-03-15",28.40,-22.90,0.00,0.00,
"CA002101095","1980-03-16",28.40,9.50,0.00,0.00,
"CA002101095","1980-03-17",33.80,13.10,0.00,0.00,
"CA002101095","1980-03-18",32.90,10.40,0.00,0.00,
"CA002101095","1980-03-19",33.80,17.60,0.00,0.00,
"CA002101095","1980-03-20",39.20,-14.80,0.00,0.00,
"CA002101095","1980-03-21",39.20,29.30,0.00,0.00,
"CA002101095","1980-03-22",37.40,12.20,0.00,0.00,
"CA002101095","1980-03-23",17.60,-4.90,0.00,0.00,
"CA002101095","1980-03-24",34.70,-12.10,0.00,0.00,
"CA002101095","1980-03-25",33.80,9.50,0.00,0.00,
"CA002101095","1980-03-26",41.00,19.40,0.00,0.00,
"CA002101095","1980-03-27",36.50,8.60,0.00,0.00,
"CA002101095","1980-03-28",41.00,27.50,0.00,0.00,
"CA002101095","1980-03-29",41.00,14.00,0.00,0.00,
"CA002101095","1980-03-30",39.20,19.40,0.00,0.00,
"CA002101095","1980-03-31",42.80,15.80,0.00,0.00,
"CA002101095","1980-04-01",47.30,22.10,0.00,0.00,
"CA002101095","1980-04-02",48.20,33.80,0.00,0.00,
"CA002101095","1980-04-03",50.00,21.20,0.00,0.00,
"CA002101095","1980-04-04",50.00,17.60,0.00,0.00,
"CA002101095","1980-04-05",49.10,15.80,0.00,0.00,
"CA002101095","1980-04-06",47.30,30.20,0.00,0.00,
"CA002101095","1980-04-07",47.30,32.00,0.00,0.00,
"CA002101095","1980-04-08",47.30,20.30,0.00,0.00,
"CA002101095","1980-04-09",48.20,14.90,0.00,0.00,
"CA002101095","1980-04-10",50.00,26.60,0.00,0.00,
"CA002101095","1980-04-11",42.80,27.50,0.00,0.00,
"CA002101095","1980-04-12",46.40,35.60,0.00,0.00,
"CA002101095","1980-04-13",45.50,25.70,0.00,0.00,
"CA002101095","1980-04-14",48.20,21.20,0.00,0.00,
"CA002101095","1980-04-15",44.60,32.00,0.00,0.00,
"CA002101095","1980-04-16",42.80,31.10,0.00,0.00,
"CA002101095","1980-04-17",46.40,25.70,0.00,0.00,
"CA002101095","1980-04-18",49.10,29.30,0.00,0.00,
"CA002101095","1980-04-19",49.10,21.20,0.00,0.00,
"CA002101095","1980-04-20",48.20,29.30,0.00,0.00,
"CA002101095","1980-04-21",46.40,29.30,0.00,0.00,
"CA002101095","1980-04-22",45.50,27.50,0.00,0.00,
"CA002101095","1980-04-23",46.40,29.30,0.00,0.00,
"CA002101095","1980-04-24",42.80,30.20,0.00,0.00,
"CA002101095","1980-04-25",51.80,29.30,0.00,0.00,
"CA002101095","1980-04-26",55.40,38.30,0.00,0.00,
"CA002101095","1980-04-27",53.60,33.80,0.00,0.00,
"CA002101095","1980-04-28",52.70,30.20,0.00,0.00,
"CA002101095","1980-04-29",49.10,26.60,0.00,0.00,
"CA002101095","1980-04-30",52.70,32.00,0.00,0.00,
"CA002101095","1980-05-01",49.10,32.90,,,
"CA002101095","1980-05-02",48.20,28.40,,,
"CA002101095","1980-05-03",50.90,29.30,,,
"CA002101095","1980-05-04",57.20,23.90,,,
"CA002101095","1980-05-05",60.80,23.90,,,
"CA002101095","1980-05-06",53.60,41.90,,,
"CA002101095","1980-05-07",55.40,41.90,,,
"CA002101095","1980-05-08",55.40,37.40,,,
"CA002101095","1980-05-09",61.70,26.60,,,
"CA002101095","1980-05-10",65.30,28.40,,,
"CA002101095","1980-05-11",64.40,49.10,,,
"CA002101095","1980-05-12",66.20,32.00,,,
"CA002101095","1980-05-13",68.90,28.40,,,
"CA002101095","1980-05-14",57.20,32.00,,,
"CA002101095","1980-05-15",60.80,27.50,,,
"CA002101095","1980-05-16",55.40,37.40,,,
"CA002101095","1980-05-17",58.10,30.20,,,
"CA002101095","1980-05-18",50.00,40.10,,,
"CA002101095","1980-05-19",55.40,25.70,,,
"CA002101095","1980-05-20",53.60,20.30,,,
"CA002101095","1980-05-21",59.00,21.20,,,
"CA002101095","1980-05-22",66.20,25.70,,,
"CA002101095","1980-05-23",69.80,24.80,,,
"CA002101095","1980-05-24",60.80,32.00,,,
"CA002101095","1980-05-25",63.50,36.50,,,
"CA002101095","1980-05-26",70.70,,,,
"CA002101095","1980-05-27",69.80,28.40,,,
"CA002101095","1980-05-28",67.10,40.10,,,
"CA002101095","1980-05-29",52.70,,,,
"CA002101095","1980-05-30",62.60,32.90,,,
"CA002101095","1980-06-01",51.80,40.10,4.00,0.00,
"CA002101095","1980-06-02",57.20,35.60,3.00,0.00,
"CA002101095","1980-06-03",68.00,36.50,0.00,0.00,
"CA002101095","1980-06-04",77.90,33.80,0.00,0.00,
"CA002101095","1980-06-05",75.20,45.50,0.00,0.00,
"CA002101095","1980-06-06",82.40,41.90,0.00,0.00,
"CA002101095","1980-06-07",86.00,44.60,0.00,0.00,
"CA002101095","1980-06-08",79.70,41.00,0.00,0.00,
"CA002101095","1980-06-09",71.60,51.80,0.00,0.00,
"CA002101095","1980-06-10",77.90,39.20,0.00,0.00,
"CA002101095","1980-06-11",72.50,41.00,0.00,0.00,
"CA002101095","1980-06-12",59.00,46.40,0.00,0.00,
"CA002101095","1980-06-13",60.80,38.30,2.00,0.00,
"CA002101095","1980-06-14",67.10,40.10,0.00,0.00,
"CA002101095","1980-06-15",66.20,34.70,0.00,0.00,
"CA002101095","1980-06-16",69.80,30.20,82.00,0.00,
"CA002101095","1980-06-17",61.70,42.80,0.00,0.00,
"CA002101095","1980-06-18",62.60,29.30,0.00,0.00,
"CA002101095","1980-06-19",66.20,30.20,0.00,0.00,
"CA002101095","1980-06-20",68.00,32.00,0.00,0.00,
"CA002101095","1980-06-21",59.00,44.60,2.00,0.00,
"CA002101095","1980-06-22",61.70,41.90,0.00,0.00,
"CA002101095","1980-06-23",68.90,42.80,0.00,0.00,
"CA002101095","1980-06-24",74.30,47.30,0.00,0.00,
"CA002101095","1980-06-25",79.70,34.70,0.00,0.00,
"CA002101095","1980-06-26",77.90,35.60,0.00,0.00,
"CA002101095","1980-06-27",77.90,40.10,0.00,0.00,
"CA002101095","1980-06-28",75.20,37.40,0.00,0.00,
"CA002101095","1980-06-29",73.40,41.00,0.00,0.00,
"CA002101095","1980-06-30",66.20,37.40,0.00,0.00,
"CA002101095","1980-07-01",68.00,32.90,0.00,0.00,
"CA002101095","1980-07-02",80.60,44.60,0.00,0.00,
"CA002101095","1980-07-03",77.00,,0.00,0.00,
"CA002101095","1980-07-04",73.40,39.20,0.00,0.00,
"CA002101095","1980-07-05",77.90,48.20,0.00,0.00,
"CA002101095","1980-07-06",74.30,41.90,0.00,0.00,
"CA002101095","1980-07-07",71.60,50.00,0.00,0.00,
"CA002101095","1980-07-08",69.80,38.30,0.00,0.00,
"CA002101095","1980-07-09",69.80,44.60,2.00,0.00,
"CA002101095","1980-07-10",71.60,47.30,0.00,0.00,
"CA002101095","1980-07-11",77.90,36.50,4.00,0.00,
"CA002101095","1980-07-12",73.40,54.50,0.00,0.00,
"CA002101095","1980-07-13",68.90,44.60,0.00,0.00,
"CA002101095","1980-07-14",67.10,54.50,62.00,0.00,
"CA002101095","1980-07-15",66.20,52.70,0.00,0.00,
"CA002101095","1980-07-16",59.00,52.70,20.00,0.00,
"CA002101095","1980-07-17",63.50,47.30,0.00,0.00,
"CA002101095","1980-07-18",67.10,41.00,0.00,0.00,
"CA002101095","1980-07-19",64.40,45.50,10.00,0.00,
"CA002101095","1980-07-20",68.90,49.10,60.00,0.00,
"CA002101095","1980-07-21",69.80,45.50,8.00,0.00,
"CA002101095","1980-07-22",72.50,42.80,0.00,0.00,
"CA002101095","1980-07-23",73.40,41.90,0.00,0.00,
"CA002101095","1980-07-24",66.20,48.20,0.00,0.00,
"CA002101095","1980-07-25",72.50,47.30,0.00,0.00,
"CA002101095","1980-07-26",65.30,41.90,0.00,0.00,
"CA002101095","1980-07-27",67.10,38.30,0.00,0.00,
"CA002101095","1980-07-28",65.30,39.20,0.00,0.00,
"CA002101095","1980-07-29",67.10,40.10,28.00,0.00,
"CA002101095","1980-07-30",62.60,47.30,0.00,0.00,
"CA002101095","1980-07-31",62.60,46.40,0.00,0.00,
"CA002101095","1980-08-01",64.40,44.60,8.00,0.00,
"CA002101095","1980-08-02",67.10,46.40,0.00,0.00,
"CA002101095","1980-08-03",60.80,41.90,0.00,0.00,
"CA002101095","1980-08-04",70.70,39.20,6.00,0.00,
"CA002101095","1980-08-05",67.10,36.50,0.00,0.00,
"CA002101095","1980-08-06",75.20,29.30,0.00,0.00,
"CA002101095","1980-08-07",75.20,38.30,0.00,0.00,
"CA002101095","1980-08-08",71.60,49.10,0.00,0.00,
"CA002101095","1980-08-09",71.60,43.70,0.00,0.00,
"CA002101095","1980-08-10",78.80,34.70,0.00,0.00,
"CA002101095","1980-08-11",82.40,37.40,0.00,0.00,
"CA002101095","1980-08-12",77.00,42.80,22.00,0.00,
"CA002101095","1980-08-13",65.30,43.70,10.00,0.00,
"CA002101095","1980-08-14",51.80,42.80,62.00,0.00,
"CA002101095","1980-08-15",65.30,44.60,0.00,0.00,
"CA002101095","1980-08-16",58.10,31.10,34.00,0.00,
"CA002101095","1980-08-17",64.40,45.50,0.00,0.00,
"CA002101095","1980-08-18",65.30,42.80,50.00,0.00,
"CA002101095","1980-08-19",57.20,45.50,16.00,0.00,
"CA002101095","1980-08-20",59.00,38.30,0.00,0.00,
"CA002101095","1980-08-21",59.00,40.10,0.00,0.00,
"CA002101095","1980-08-22",52.70,28.40,0.00,0.00,
"CA002101095","1980-08-23",53.60,36.50,40.00,0.00,
"CA002101095","1980-08-24",59.00,41.90,0.00,0.00,
"CA002101095","1980-08-25",60.80,33.80,2.00,0.00,
"CA002101095","1980-08-26",60.80,30.20,4.00,0.00,
"CA002101095","1980-08-27",52.70,27.50,4.00,0.00,
"CA002101095","1980-08-28",63.50,32.00,0.00,0.00,
"CA002101095","1980-08-29",61.70,36.50,0.00,0.00,
"CA002101095","1980-08-30",64.40,39.20,6.00,0.00,
"CA002101095","1980-08-31",59.90,30.20,0.00,0.00,
"CA002101095","1980-09-01",59.90,31.10,0.00,0.00,0.00
"CA002101095","1980-09-02",52.70,30.20,0.00,0.00,0.00
"CA002101095","1980-09-03",50.90,32.90,60.00,0.00,0.00
"CA002101095","1980-09-04",51.80,34.70,0.00,0.00,0.00
"CA002101095","1980-09-05",39.20,31.10,208.00,0.00,0.00
"CA002101095","1980-09-06",48.20,32.90,0.00,0.00,0.00
"CA002101095","1980-09-07",52.70,25.70,0.00,0.00,0.00
"CA002101095","1980-09-08",48.20,30.20,18.00,0.00,0.00
"CA002101095","1980-09-09",55.40,32.90,0.00,0.00,0.00
"CA002101095","1980-09-10",51.80,23.00,0.00,0.00,0.00
"CA002101095","1980-09-11",50.00,26.60,0.00,0.00,0.00
"CA002101095","1980-09-12",55.40,27.50,0.00,0.00,0.00
"CA002101095","1980-09-13",53.60,38.30,46.00,0.00,0.00
"CA002101095","1980-09-14",58.10,34.70,0.00,0.00,0.00
"CA002101095","1980-09-15",69.80,40.10,195.00,0.00,0.00
"CA002101095","1980-09-16",54.50,39.20,0.00,0.00,0.00
"CA002101095","1980-09-17",53.60,28.40,0.00,0.00,0.00
"CA002101095","1980-09-18",,28.40,0.00,0.00,0.00
"CA002101095","1980-09-19",,,,0.00,0.00
"CA002101095","1980-09-20",,,,0.00,0.00
"CA002101095","1980-09-21",,,,0.00,0.00
"CA002101095","1980-09-22",,,,0.00,0.00
"CA002101095","1980-09-23",,,0.00,0.00,0.00
"CA002101095","1980-09-24",41.90,27.50,0.00,0.00,0.00
"CA002101095","1980-09-25",44.60,32.90,0.00,0.00,0.00
"CA002101095","1980-09-26",50.00,32.00,0.00,0.00,0.00
"CA002101095","1980-09-27",57.20,35.60,0.00,0.00,0.00
"CA002101095","1980-09-28",57.20,32.90,0.00,0.00,0.00
"CA002101095","1980-09-29",56.30,38.30,0.00,0.00,0.00
"CA002101095","1980-09-30",55.40,30.20,0.00,0.00,0.00
"CA002101095","1980-10-01",52.70,29.30,0.00,0.00,0.00
"CA002101095","1980-10-02",50.00,37.40,86.00,0.00,0.00
"CA002101095","1980-10-03",51.80,33.80,0.00,0.00,0.00
"CA002101095","1980-10-04",50.00,32.00,0.00,0.00,0.00
"CA002101095","1980-10-05",59.00,42.80,0.00,0.00,0.00
"CA002101095","1980-10-06",56.30,39.20,0.00,0.00,0.00
"CA002101095","1980-10-07",57.20,43.70,0.00,0.00,0.00
"CA002101095","1980-10-08",50.90,40.10,0.00,0.00,0.00
"CA002101095","1980-10-09",52.70,34.70,0.00,0.00,0.00
"CA002101095","1980-10-10",50.00,37.40,0.00,0.00,0.00
"CA002101095","1980-10-11",51.80,37.40,0.00,0.00,0.00
"CA002101095","1980-10-12",52.70,38.30,0.00,0.00,0.00
"CA002101095","1980-10-13",43.70,26.60,0.00,0.00,0.00
"CA002101095","1980-10-14",41.00,22.10,0.00,0.00,0.00
"CA002101095","1980-10-15",41.90,11.30,24.00,0.00,0.00
"CA002101095","1980-10-16",53.60,30.20,0.00,0.00,0.00
"CA002101095","1980-10-17",43.70,33.80,0.00,0.00,0.00
"CA002101095","1980-10-18",50.90,32.90,0.00,0.00,0.00
"CA002101095","1980-10-19",50.00,33.80,0.00,0.00,0.00
"CA002101095","1980-10-20",45.50,29.30,0.00,0.00,0.00
"CA002101095","1980-10-21",42.80,29.30,0.00,0.00,0.00
"CA002101095","1980-10-22",42.80,18.50,0.00,0.00,0.00
"CA002101095","1980-10-23",38.30,15.80,0.00,0.00,0.00
"CA002101095","1980-10-24",47.30,32.00,0.00,0.00,0.00
"CA002101095","1980-10-25",46.40,35.60,0.00,0.00,0.00
"CA002101095","1980-10-26",33.80,21.20,0.00,0.00,0.00
"CA002101095","1980-10-27",40.10,17.60,0.00,0.00,0.00
"CA002101095","1980-10-28",41.00,26.60,0.00,0.00,0.00
"CA002101095","1980-10-29",41.90,31.10,0.00,0.00,0.00
"CA002101095","1980-10-30",28.40,10.40,46.00,46.00,0.00
"CA002101095","1980-10-31",35.60,18.50,0.00,0.00,30.00
"CA002101095","1980-11-01",30.20,25.70,10.00,10.00,
"CA002101095","1980-11-02",32.90,14.00,0.00,0.00,
"CA002101095","1980-11-03",41.90,9.50,0.00,0.00,
"CA002101095","1980-11-04",44.60,36.50,0.00,0.00,
"CA002101095","1980-11-05",35.60,16.70,0.00,0.00,
"CA002101095","1980-11-06",32.00,18.50,20.00,20.00,
"CA002101095","1980-11-07",30.20,28.40,40.00,40.00,
"CA002101095","1980-11-08",28.40,26.60,20.00,20.00,
"CA002101095","1980-11-09",21.20,11.30,0.00,0.00,
"CA002101095","1980-11-10",20.30,6.80,0.00,0.00,
"CA002101095","1980-11-11",30.20,-7.60,0.00,0.00,
"CA002101095","1980-11-12",33.80,20.30,0.00,0.00,
"CA002101095","1980-11-13",27.50,15.80,20.00,20.00,
"CA002101095","1980-11-14",28.40,4.10,0.00,0.00,
"CA002101095","1980-11-15",37.40,14.00,0.00,0.00,
"CA002101095","1980-11-16",38.30,31.10,0.00,0.00,
"CA002101095","1980-11-17",29.30,18.50,0.00,0.00,
"CA002101095","1980-11-18",39.20,18.50,0.00,0.00,
"CA002101095","1980-11-19",32.90,14.00,30.00,30.00,
"CA002101095","1980-11-20",25.70,9.50,0.00,0.00,
"CA002101095","1980-11-21",14.00,-2.20,0.00,0.00,
"CA002101095","1980-11-22",32.00,-4.00,0.00,0.00,
"CA002101095","1980-11-23",35.60,12.20,0.00,0.00,
"CA002101095","1980-11-24",35.60,11.30,0.00,0.00,100.00
"CA002101095","1980-11-25",34.70,14.90,0.00,0.00,100.00
"CA002101095","1980-11-26",34.70,22.10,0.00,0.00,100.00
"CA002101095","1980-11-27",36.50,18.50,0.00,0.00,100.00
"CA002101095","1980-11-28",30.20,20.30,30.00,30.00,110.00
"CA002101095","1980-11-29",14.00,5.90,0.00,0.00,110.00
"CA002101095","1980-11-30",-4.90,-18.40,0.00,0.00,110.00
"CA002101095","1980-12-01",-13.00,-32.80,0.00,0.00,110.00
"CA002101095","1980-12-02",-9.40,-23.80,0.00,0.00,
"CA002101095","1980-12-03",-22.00,-31.00,0.00,0.00,
"CA002101095","1980-12-04",-13.00,-32.80,0.00,0.00,
"CA002101095","1980-12-05",-4.90,-27.40,0.00,0.00,
"CA002101095","1980-12-06",-1.30,-17.50,60.00,60.00,
"CA002101095","1980-12-07",-4.00,-22.00,0.00,0.00,
"CA002101095","1980-12-08",-43.60,-47.20,0.00,0.00,160.00
"CA002101095","1980-12-09",-30.10,-54.40,0.00,0.00,
"CA002101095","1980-12-10",-22.00,-43.60,0.00,0.00,
"CA002101095","1980-12-11",-22.00,-35.50,10.00,10.00,
"CA002101095","1980-12-12",-14.80,-27.40,20.00,20.00,
"CA002101095","1980-12-13",34.70,-18.40,0.00,0.00,
"CA002101095","1980-12-14",36.50,-11.20,0.00,0.00,
"CA002101095","1980-12-15",19.40,-9.40,0.00,0.00,170.00
"CA002101095","1980-12-16",-12.10,-23.80,0.00,0.00,170.00
"CA002101095","1980-12-17",-43.60,-50.80,0.00,0.00,170.00
"CA002101095","1980-12-18",-45.40,-52.60,0.00,0.00,170.00
"CA002101095","1980-12-19",-37.30,-51.70,0.00,0.00,170.00
"CA002101095","1980-12-20",-37.30,-49.90,0.00,0.00,170.00
"CA002101095","1980-12-21",-36.40,-50.80,0.00,0.00,170.00
"CA002101095","1980-12-22",-23.80,-47.20,0.00,0.00,170.00
"CA002101095","1980-12-23",-31.90,-43.60,0.00,0.00,
"CA002101095","1980-12-24",-17.50,-49.90,170.00,170.00,
"CA002101095","1980-12-25",-9.40,-31.90,70.00,70.00,
"CA002101095","1980-12-26",-11.20,-31.90,10.00,10.00,
"CA002101095","1980-12-27",-36.40,-58.90,0.00,0.00,
"CA002101095","1980-12-28",-15.70,-53.50,40.00,40.00,
"CA002101095","1980-12-29",23.90,-27.40,0.00,0.00,400.00
"CA002101095","1980-12-30",33.80,-20.20,0.00,0.00,400.00
"CA002101095","1980-12-31",32.00,15.80,0.00,0.00,400.00
"CA002101095","1981-01-01",39.20,19.40,0.00,0.00,350.00
"CA002101095","1981-01-02",36.50,23.00,0.00,0.00,
"CA002101095","1981-01-03",30.20,27.50,0.00,0.00,
"CA002101095","1981-01-04",32.90,6.80,0.00,0.00,
"CA002101095","1981-01-05",21.20,-4.00,10.00,10.00,
"CA002101095","1981-01-06",24.80,9.50,0.00,0.00,
"CA002101095","1981-01-07",33.80,2.30,0.00,0.00,
"CA002101095","1981-01-08",26.60,9.50,0.00,0.00,
"CA002101095","1981-01-09",32.00,16.70,0.00,0.00,
"CA002101095","1981-01-10",37.40,9.50,0.00,0.00,
"CA002101095","1981-01-11",38.30,28.40,0.00,0.00,
"CA002101095","1981-01-12",30.20,4.10,0.00,0.00,270.00
"CA002101095","1981-01-13",39.20,0.50,0.00,0.00,
"CA002101095","1981-01-14",48.20,34.70,0.00,0.00,
"CA002101095","1981-01-15",46.40,38.30,0.00,0.00,
"CA002101095","1981-01-16",41.90,33.80,0.00,0.00,
"CA002101095","1981-01-17",41.00,30.20,0.00,0.00,
"CA002101095","1981-01-18",46.40,34.70,0.00,0.00,
"CA002101095","1981-01-19",44.60,31.10,0.00,0.00,
"CA002101095","1981-01-20",33.80,13.10,0.00,0.00,
"CA002101095","1981-01-21",41.90,19.40,0.00,0.00,
"CA002101095","1981-01-22",32.90,29.30,0.00,0.00,
"CA002101095","1981-01-23",28.40,8.60,0.00,0.00,
"CA002101095","1981-01-24",26.60,12.20,0.00,0.00,
"CA002101095","1981-01-25",28.40,8.60,0.00,0.00,
"CA002101095","1981-01-26",28.40,11.30,0.00,0.00,
"CA002101095","1981-01-27",15.80,8.60,50.00,50.00,
"CA002101095","1981-01-28",14.00,-10.30,0.00,0.00,
"CA002101095","1981-01-29",12.20,-19.30,0.00,0.00,
"CA002101095","1981-01-30",21.20,-5.80,0.00,0.00,
"CA002101095","1981-01-31",32.90,5.00,0.00,0.00,
"CA002101095","1981-02-01",35.60,19.40,0.00,0.00,20.00
"CA002101095","1981-02-02",40.10,22.10,0.00,0.00,
"CA002101095","1981-02-03",26.60,6.80,0.00,0.00,
"CA002101095","1981-02-04",23.00,-2.20,0.00,0.00,
"CA002101095","1981-02-05",14.90,-7.60,0.00,0.00,
"CA002101095","1981-02-06",22.10,1.40,20.00,20.00,
"CA002101095","1981-02-07",28.40,9.50,0.00,0.00,
"CA002101095","1981-02-08",26.60,19.40,0.00,0.00,40.00
"CA002101095","1981-02-09",15.80,-13.90,0.00,0.00,
"CA002101095","1981-02-10",26.60,9.50,0.00,0.00,
"CA002101095","1981-02-11",12.20,6.80,60.00,60.00,
"CA002101095","1981-02-12",1.40,-4.00,10.00,10.00,
"CA002101095","1981-02-13",2.30,-2.20,60.00,60.00,
"CA002101095","1981-02-14",2.30,-2.20,40.00,40.00,
"CA002101095","1981-02-15",1.40,-18.40,0.00,0.00,160.00
"CA002101095","1981-02-16",-4.00,-32.80,0.00,0.00,
"CA002101095","1981-02-17",-0.40,-25.60,0.00,0.00,
"CA002101095","1981-02-18",6.80,-11.20,0.00,0.00,
"CA002101095","1981-02-19",7.70,-14.80,0.00,0.00,
"CA002101095","1981-02-20",31.10,-4.90,0.00,0.00,
"CA002101095","1981-02-21",39.20,2.30,0.00,0.00,
"CA002101095","1981-02-22",29.30,18.50,0.00,0.00,
"CA002101095","1981-02-23",16.70,-12.10,0.00,0.00,120.00
"CA002101095","1981-02-24",17.60,-16.60,0.00,0.00,
"CA002101095","1981-02-25",26.60,-4.00,0.00,0.00,
"CA002101095","1981-02-26",30.20,-2.20,0.00,0.00,
"CA002101095","1981-02-27",32.00,-13.00,0.00,0.00,
"CA002101095","1981-02-28",35.60,-9.40,0.00,0.00,120.00
"CA002101095","1981-03-01",35.60,,0.00,0.00,120.00
"CA002101095","1981-03-02",39.20,10.40,0.00,0.00,
"CA002101095","1981-03-03",31.10,21.20,0.00,0.00,
"CA002101095","1981-03-04",26.60,-11.20,0.00,0.00,
"CA002101095","1981-03-05",25.70,,0.00,0.00,
"CA002101095","1981-03-06",30.20,,0.00,0.00,
"CA002101095","1981-03-07",23.00,-14.80,0.00,0.00,
"CA002101095","1981-03-08",39.20,-11.20,0.00,0.00,90.00
"CA002101095","1981-03-09",,33.80,,,
"CA002101095","1981-03-15",44.60,,0.00,0.00,
"CA002101095","1981-03-16",41.00,21.20,0.00,0.00,
"CA002101095","1981-03-17",41.00,10.40,0.00,0.00,
"CA002101095","1981-03-18",40.10,21.20,0.00,0.00,
"CA002101095","1981-03-19",45.50,7.70,0.00,0.00,
"CA002101095","1981-03-20",39.20,16.70,0.00,0.00,
"CA002101095","1981-03-21",32.00,19.40,0.00,0.00,
"CA002101095","1981-03-22",29.30,18.50,0.00,0.00,
"CA002101095","1981-03-23",39.20,17.60,0.00,0.00,
"CA002101095","1981-03-24",43.70,14.90,0.00,0.00,
"CA002101095","1981-03-25",37.40,25.70,0.00,0.00,
"CA002101095","1981-03-26",43.70,28.40,0.00,0.00,
"CA002101095","1981-03-27",43.70,32.00,0.00,0.00,
"CA002101095","1981-03-28",41.90,16.70,0.00,0.00,
"CA002101095","1981-03-29",40.10,16.70,0.00,0.00,
"CA002101095","1981-03-30",39.20,19.40,0.00,0.00,
"CA002101095","1981-03-31",40.10,23.00,0.00,0.00,
"CA002101095","1981-04-01",38.30,15.80,0.00,0.00,
"CA002101095","1981-04-02",38.30,22.10,0.00,0.00,
"CA002101095","1981-04-03",33.80,24.80,0.00,0.00,
"CA002101095","1981-04-04",37.40,5.00,0.00,0.00,
"CA002101095","1981-04-05",36.50,21.20,0.00,0.00,
"CA002101095","1981-04-06",35.60,6.80,0.00,0.00,
"CA002101095","1981-04-07",35.60,15.80,0.00,0.00,
"CA002101095","1981-04-08",28.40,20.30,0.00,0.00,
"CA002101095","1981-04-09",28.40,13.10,0.00,0.00,
"CA002101095","1981-04-10",23.00,8.60,0.00,0.00,
"CA002101095","1981-04-11",27.50,7.70,0.00,0.00,
"CA002101095","1981-04-12",26.60,-2.20,0.00,0.00,
"CA002101095","1981-04-13",31.10,2.30,0.00,0.00,
"CA002101095","1981-04-14",27.50,14.00,0.00,0.00,
"CA002101095","1981-04-15",28.40,15.80,10.00,10.00,
"CA002101095","1981-04-16",29.30,16.70,0.00,0.00,
"CA002101095","1981-04-17",38.30,1.40,0.00,0.00,
"CA002101095","1981-04-18",44.60,10.40,0.00,0.00,
"CA002101095","1981-04-19",44.60,26.60,0.00,0.00,
"CA002101095","1981-04-20",46.40,35.60,0.00,0.00,
"CA002101095","1981-04-21",47.30,30.20,0.00,0.00,
"CA002101095","1981-04-22",47.30,21.20,0.00,0.00,
"CA002101095","1981-04-23",46.40,25.70,0.00,0.00,
"CA002101095","1981-04-24",48.20,28.40,0.00,0.00,
"CA002101095","1981-04-25",46.40,33.80,0.00,0.00,
"CA002101095","1981-04-26",49.10,33.80,0.00,0.00,
"CA002101095","1981-04-27",47.30,33.80,0.00,0.00,
"CA002101095","1981-04-28",51.80,28.40,0.00,0.00,
"CA002101095","1981-04-29",53.60,27.50,0.00,0.00,
"CA002101095","1981-04-30",53.60,24.80,0.00,0.00,
"CA002101095","1981-07-01",62.60,44.60,42.00,0.00,0.00
"CA002101095","1981-07-02",63.50,41.00,0.00,0.00,0.00
"CA002101095","1981-07-03",57.20,40.10,0.00,0.00,0.00
"CA002101095","1981-07-04",60.80,41.00,0.00,0.00,0.00
"CA002101095","1981-07-05",60.80,46.40,20.00,0.00,0.00
"CA002101095","1981-07-06",58.10,41.90,44.00,0.00,0.00
"CA002101095","1981-07-07",61.70,43.70,38.00,0.00,0.00
"CA002101095","1981-07-08",64.40,39.20,6.00,0.00,0.00
"CA002101095","1981-07-09",74.30,47.30,0.00,0.00,0.00
"CA002101095","1981-07-10",79.70,41.00,0.00,0.00,0.00
"CA002101095","1981-07-11",70.70,45.50,0.00,0.00,0.00
"CA002101095","1981-07-12",73.40,42.80,0.00,0.00,0.00
"CA002101095","1981-07-13",77.00,46.40,0.00,0.00,0.00
"CA002101095","1981-07-14",80.60,40.10,0.00,0.00,0.00
"CA002101095","1981-07-15",78.80,44.60,0.00,0.00,0.00